Zurück zum Katalog

SL-16 DEB

AktivLEO
NORAD 23090·DEBRIS·🇷🇺 Russia

Gestartet Apr 23, 1994 von Baikonur Cosmodrome

Loading…

Nächste Überflüge (nächste 24 Stunden)

TLE

AktuellSource: Space-Track

Epoche: Sep 14, 2026, 13:41 UTC

1 23090U 94023D   26257.57074862  .00000045  00000-0  78713-4 0  9992
2 23090  71.0305 220.5424 0189044 115.2319 246.8512 13.75689258625565

Verfolge SL-16 DEB in Echtzeit mit AllMySat

Download on the App Store